Date String (YYYY-MM-DD hh:mm:ss) UTC,Instrument flags,Ambient pressure (hPa),Sample flow (lpm),Bypass flow (lpm),Sample temperature (°C),Ambient temperature (°C),ASC tube jacket temperature (°C),LED temperature (°C),Box temperature (°C),Sample RH (%),Span deviation,Mass concentration (μg/m³),Mass concentration (μg/m³),Mass concentration (μg/m³)
DateTimeUTC,F1_M11,P_M11,Q1_M11,Q2_M11,T1_M11,T2_M11,T3_M11,T4_M11,T5_M11,U1_M11,ZSPAN_M11,X2_M11,X0_M11,X1_M11
2022-01-21 16:00:00,,0825.9,4.99,0.00,22.3,22.2,00.0,31.3,24.1,15.1,-003.0,0004.69,0008.56,0004.39
2022-01-21 16:01:00,,0825.9,5.00,0.00,22.5,23.0,00.0,31.4,24.4,14.9,-002.8,0005.28,0009.79,0004.94
2022-01-21 16:02:00,,0825.9,5.00,0.00,22.6,23.3,00.0,31.4,24.6,14.8,-002.7,0005.87,0010.79,0005.50
2022-01-21 16:03:00,,0825.9,5.00,0.00,22.6,23.1,00.0,31.4,24.6,14.8,-002.9,0006.35,0011.40,0005.95
2022-01-21 16:04:00,,0825.9,5.00,0.00,22.6,22.9,00.0,31.5,24.5,14.7,-002.9,0006.51,0011.61,0006.13
2022-01-21 16:05:00,,0825.9,5.00,0.00,22.6,22.7,00.0,31.5,24.5,14.6,-002.8,0006.58,0011.44,0006.20
2022-01-21 16:06:00,,0825.9,4.99,0.00,22.6,22.5,00.0,31.5,24.4,14.6,-002.8,0006.71,0011.15,0006.30
2022-01-21 16:07:00,,0826.0,4.99,0.00,22.6,22.4,00.0,31.5,24.4,14.7,-002.7,0006.97,0011.70,0006.53
2022-01-21 16:08:00,,0826.0,4.99,0.00,22.6,22.3,00.0,31.5,24.4,14.7,-002.9,0007.17,0012.15,0006.72
2022-01-21 16:09:00,,0825.9,5.00,0.00,22.6,22.2,00.0,31.5,24.3,14.6,-002.8,0007.16,0012.08,0006.73
2022-01-21 16:10:00,,0825.9,5.00,0.00,22.6,22.1,00.0,31.5,24.3,14.5,-002.6,0006.70,0011.37,0006.34
2022-01-21 16:11:00,,0825.9,4.99,0.00,22.5,22.1,00.0,31.5,24.3,14.4,-002.4,0006.13,0010.55,0005.83
2022-01-21 16:12:00,,0825.9,5.01,0.00,22.5,22.0,00.0,31.5,24.2,14.3,-002.5,0005.55,0009.33,0005.28
2022-01-21 16:13:00,,0825.9,4.99,0.00,22.5,21.9,00.0,31.5,24.2,14.2,-002.5,0004.98,0008.37,0004.73
2022-01-21 16:14:00,,0826.0,5.01,0.00,22.5,21.9,00.0,31.5,24.2,14.1,-002.1,0004.51,0007.76,0004.27
2022-01-21 16:15:00,,0826.0,4.98,0.00,22.5,21.9,00.0,31.5,24.2,14.0,-001.8,0004.29,0007.47,0004.05
2022-01-21 16:16:00,,0826.0,5.02,0.00,22.4,21.8,00.0,31.5,24.2,13.9,-001.8,0004.18,0007.31,0003.94
2022-01-21 16:17:00,,0826.1,5.01,0.00,22.4,21.8,00.0,31.4,24.2,13.9,-001.8,0004.03,0006.83,0003.81
2022-01-21 16:18:00,,0826.2,4.99,0.00,22.4,21.7,00.0,31.4,24.1,13.9,-001.5,0003.72,0005.66,0003.54
2022-01-21 16:19:00,,0826.1,5.02,0.00,22.4,21.7,00.0,31.4,24.1,13.8,-000.4,0003.50,0004.82,0003.34
2022-01-21 16:20:00,,0826.1,4.99,0.00,22.4,21.7,00.0,31.4,24.1,13.7,0000.0,0003.31,0004.49,0003.15
2022-01-21 16:21:00,,0826.1,4.99,0.00,22.3,21.6,00.0,31.4,24.1,13.6,0000.0,0003.16,0005.01,0002.93
2022-01-21 16:22:00,,0826.2,5.02,0.00,22.3,21.6,00.0,31.4,24.1,13.5,0000.0,0003.05,0005.68,0002.77
2022-01-21 16:23:00,,0826.2,5.00,0.00,22.3,21.6,00.0,31.4,24.1,14.3,0000.0,0003.10,0005.85,0002.84
2022-01-21 16:24:00,,0826.2,5.00,0.00,22.3,21.6,00.0,31.4,24.1,15.1,-000.4,0003.21,0005.98,0003.05
2022-01-21 16:25:00,,0826.2,4.98,0.00,22.3,21.6,00.0,31.4,24.1,15.4,-000.5,0003.35,0006.27,0003.21
2022-01-21 16:26:00,,0826.2,5.01,0.00,22.3,21.6,00.0,31.3,24.1,15.3,-000.6,0003.42,0006.39,0003.29
2022-01-21 16:27:00,,0826.3,4.99,0.00,22.4,21.6,00.0,31.3,24.1,15.1,-000.9,0003.48,0006.47,0003.37
2022-01-21 16:28:00,,0826.4,5.01,0.00,22.3,21.6,00.0,31.3,24.1,14.9,-001.3,0003.56,0006.69,0003.43
2022-01-21 16:29:00,,0826.5,5.00,0.00,22.3,21.6,00.0,31.3,24.1,15.2,-001.2,0003.70,0007.00,0003.55
2022-01-21 16:30:00,,0826.5,4.99,0.00,22.3,21.5,00.0,31.3,24.1,15.5,-001.1,0003.85,0007.27,0003.70
2022-01-21 16:31:00,,0826.5,5.01,0.00,22.3,21.5,00.0,31.3,24.1,15.5,-001.6,0004.04,0007.57,0003.87
2022-01-21 16:32:00,,0826.5,4.98,0.00,22.3,21.5,00.0,31.3,24.1,15.3,-001.8,0004.26,0007.44,0004.06
2022-01-21 16:33:00,,0826.5,5.02,0.00,22.3,21.6,00.0,31.3,24.1,15.2,-001.7,0004.48,0007.22,0004.26
2022-01-21 16:34:00,,0826.6,5.00,0.00,22.4,22.2,00.0,31.3,24.3,15.2,-001.2,0004.68,0007.51,0004.42
2022-01-21 16:35:00,,0826.7,5.00,0.00,22.6,23.1,00.0,31.4,24.6,15.0,-001.2,0004.73,0007.75,0004.47
2022-01-21 16:36:00,,0826.7,5.00,0.00,22.7,23.5,00.0,31.5,24.8,14.6,-001.5,0004.77,0007.85,0004.49
2022-01-21 16:40:00,,0826.7,5.00,0.00,22.8,22.7,00.0,31.6,24.7,15.2,-001.5,0005.90,0010.03,0005.48
2022-01-21 16:41:00,,0826.7,5.00,0.00,22.8,22.5,00.0,31.6,24.6,14.5,-001.5,0006.03,0010.31,0005.57
2022-01-21 16:42:00,,0826.7,5.00,0.00,22.8,22.4,00.0,31.6,24.6,14.0,-001.4,0006.05,0010.41,0005.55
2022-01-21 16:43:00,,0826.8,5.01,0.00,22.8,22.3,00.0,31.6,24.6,13.8,-001.2,0006.01,0010.44,0005.47
2022-01-21 16:44:00,,0826.9,5.00,0.00,22.7,22.2,00.0,31.6,24.5,13.9,-001.1,0005.97,0010.82,0005.39
2022-01-21 16:45:00,,0827.0,4.99,0.00,22.7,22.1,00.0,31.6,24.5,14.4,-001.6,0006.04,0011.41,0005.43
2022-01-21 16:46:00,,0827.0,5.01,0.00,22.7,22.0,00.0,31.6,24.4,15.1,-002.0,0006.50,0011.91,0005.86
2022-01-21 16:47:00,,0827.0,4.99,0.00,22.6,21.9,00.0,31.6,24.3,14.6,-001.9,0006.74,0012.24,0006.10
2022-01-21 16:48:00,,0826.9,5.02,0.00,22.6,21.8,00.0,31.6,24.3,13.8,-002.0,0006.66,0012.12,0006.04
2022-01-21 16:49:00,,0827.0,4.98,0.00,22.6,21.8,00.0,31.6,24.3,13.6,-001.9,0006.63,0012.02,0006.00
2022-01-21 16:50:00,,0826.9,5.02,0.00,22.6,21.8,00.0,31.6,24.3,13.4,-001.9,0006.38,0011.69,0005.76
2022-01-21 16:51:00,,0827.0,4.99,0.00,22.5,21.7,00.0,31.6,24.2,13.3,-001.8,0006.06,0010.82,0005.49
2022-01-21 16:52:00,,0827.0,4.99,0.00,22.5,21.6,00.0,31.6,24.2,13.4,-002.1,0005.93,0010.46,0005.38
2022-01-21 16:53:00,,0827.0,5.01,0.00,22.5,21.6,00.0,31.5,24.2,13.2,-002.0,0005.91,0010.36,0005.40
2022-01-21 16:54:00,,0827.1,5.01,0.00,22.5,21.6,00.0,31.5,24.2,13.1,-001.8,0005.89,0010.19,0005.44
2022-01-21 16:55:00,,0827.1,4.99,0.00,22.4,21.6,00.0,31.5,24.1,13.1,-001.7,0005.88,0009.70,0005.46
2022-01-21 16:56:00,,0827.2,5.02,0.00,22.4,21.6,00.0,31.5,24.1,13.1,-001.6,0005.71,0008.96,0005.33
2022-01-21 16:57:00,,0827.2,4.98,0.00,22.4,21.6,00.0,31.5,24.1,13.1,-001.1,0005.17,0008.20,0004.84
2022-01-21 16:58:00,,0827.2,5.01,0.00,22.4,21.6,00.0,31.4,24.1,13.2,-000.9,0004.88,0007.96,0004.56
2022-01-21 16:59:00,,0827.4,4.99,0.00,22.4,21.6,00.0,31.4,24.1,13.1,-000.9,0004.87,0008.00,0004.55
